2022/12/23 00:00:00,14.0,-6.4
2022/12/23 00:10:00,14.5,-6.4
2022/12/23 00:20:00,14.9,-6.5
2022/12/23 00:30:00,15.5,-6.7
2022/12/23 00:40:00,16.1,-6.7
2022/12/23 00:50:00,16.3,-6.9
2022/12/23 01:00:00,16.6,-6.9
2022/12/23 01:10:00,17.4,-7.2
2022/12/23 01:20:00,18.8,-7.3
2022/12/23 01:30:00,20.0,-7.1
2022/12/23 01:40:00,21.8,-6.8
2022/12/23 01:50:00,23.8,-7.0
2022/12/23 02:00:00,25.7,-6.9
2022/12/23 02:10:00,27.7,-6.7
2022/12/23 02:20:00,29.0,-6.8
2022/12/23 02:30:00,29.7,-6.7
2022/12/23 02:40:00,30.9,-6.8
2022/12/23 02:50:00,32.0,-6.8
2022/12/23 03:00:00,33.5,-7.0
2022/12/23 03:10:00,34.8,-6.6
2022/12/23 03:20:00,35.9,-6.6
2022/12/23 03:30:00,37.8,-6.8
2022/12/23 03:40:00,41.3,-6.8
2022/12/23 03:50:00,45.0,-6.8
2022/12/23 04:00:00,49.3,-7.1
2022/12/23 04:10:00,52.8,-6.8
2022/12/23 04:20:00,54.9,-6.9
2022/12/23 04:30:00,56.5,-6.7
2022/12/23 04:40:00,57.6,-6.9
2022/12/23 04:50:00,58.8,-6.7
2022/12/23 05:00:00,59.9,-6.8
2022/12/23 05:10:00,60.1,-7.3
2022/12/23 05:20:00,59.4,-7.1
2022/12/23 05:30:00,58.9,-7.2
2022/12/23 05:40:00,58.4,-7.2
2022/12/23 05:50:00,58.0,-7.1
2022/12/23 06:00:00,57.8,-7.2
2022/12/23 06:10:00,57.9,-7.1
2022/12/23 06:20:00,57.8,-7.1
2022/12/23 06:30:00,58.1,-7.0
2022/12/23 06:40:00,58.9,-7.1
2022/12/23 06:50:00,58.7,-7.2
2022/12/23 07:00:00,58.3,-7.1
2022/12/23 07:10:00,58.0,-7.0
2022/12/23 07:20:00,57.8,-6.9
2022/12/23 07:30:00,57.4,-6.9
2022/12/23 07:40:00,57.1,-7.1
2022/12/23 07:50:00,56.9,-6.8
2022/12/23 08:00:00,56.7,-6.9
2022/12/23 08:10:00,56.4,-6.9
2022/12/23 08:20:00,56.4,-6.6
2022/12/23 08:30:00,56.4,-6.9
2022/12/23 08:40:00,56.1,-6.4
2022/12/23 08:50:00,55.9,-6.6
2022/12/23 09:00:00,55.8,-6.7
2022/12/23 09:10:00,55.5,-6.5
2022/12/23 09:20:00,55.4,-6.4
2022/12/23 09:30:00,55.2,-6.3
2022/12/23 09:40:00,54.9,-6.5
2022/12/23 09:50:00,54.8,-6.4
2022/12/23 10:00:00,54.4,-5.9
2022/12/23 10:10:00,54.2,-5.3
2022/12/23 10:20:00,54.0,-6.1
2022/12/23 10:30:00,53.9,-5.9
2022/12/23 10:40:00,54.2,-5.9
2022/12/23 10:50:00,54.0,-6.2
2022/12/23 11:00:00,53.8,-6.0
2022/12/23 11:10:00,53.6,-6.0
2022/12/23 11:20:00,53.4,-5.9
2022/12/23 11:30:00,53.3,-5.8
2022/12/23 11:40:00,53.2,-6.3
2022/12/23 11:50:00,53.1,-6.1
2022/12/23 12:00:00,53.0,-6.1
2022/12/23 12:10:00,52.9,-6.0
2022/12/23 12:20:00,52.7,-5.7
2022/12/23 12:30:00,52.5,-5.9
2022/12/23 12:40:00,52.3,-6.4
2022/12/23 12:50:00,52.5,-6.5
2022/12/23 13:00:00,53.4,-6.4
2022/12/23 13:10:00,54.6,-6.1
2022/12/23 13:20:00,55.9,-6.4
2022/12/23 13:30:00,56.9,-6.3
2022/12/23 13:40:00,56.7,-6.0
2022/12/23 13:50:00,56.5,-6.1
2022/12/23 14:00:00,56.3,-6.2
2022/12/23 14:10:00,56.1,-6.0
2022/12/23 14:20:00,55.9,-6.4
2022/12/23 14:30:00,55.8,-6.4
2022/12/23 14:40:00,56.0,-6.0
2022/12/23 14:50:00,56.0,-6.3
2022/12/23 15:00:00,56.3,-6.2
2022/12/23 15:10:00,56.5,-6.1
2022/12/23 15:20:00,56.6,-5.9
2022/12/23 15:30:00,56.3,-6.4
2022/12/23 15:40:00,56.5,-6.0
2022/12/23 15:50:00,56.4,-6.3
2022/12/23 16:00:00,56.5,-6.3
2022/12/23 16:10:00,56.5,-6.4
2022/12/23 16:20:00,56.6,-6.1
2022/12/23 16:30:00,56.6,-6.3
2022/12/23 16:40:00,56.6,-6.3
2022/12/23 16:50:00,45.3,-6.4
2022/12/23 17:00:00,41.8,-6.3
2022/12/23 17:10:00,42.7,-6.0
2022/12/23 17:20:00,43.2,-6.4
2022/12/23 17:30:00,43.7,-6.1
2022/12/23 17:40:00,44.3,-6.0
2022/12/23 17:50:00,44.7,-6.3
2022/12/23 18:00:00,46.0,-5.9
2022/12/23 18:10:00,46.8,-6.0
2022/12/23 18:20:00,47.3,-6.1
2022/12/23 18:30:00,48.5,-6.0
2022/12/23 18:40:00,49.0,-6.0
2022/12/23 18:50:00,49.3,-5.9
2022/12/23 19:00:00,49.6,-5.6
2022/12/23 19:10:00,49.8,-5.9
2022/12/23 19:20:00,50.6,-5.5
2022/12/23 19:30:00,51.8,-6.1
2022/12/23 19:40:00,52.6,-5.6
2022/12/23 19:50:00,52.7,-5.6
2022/12/23 20:00:00,52.5,-5.5
2022/12/23 20:10:00,52.3,-5.4
2022/12/23 20:20:00,52.3,-5.4
2022/12/23 20:30:00,52.6,-5.1
2022/12/23 20:40:00,52.5,-5.3
2022/12/23 20:50:00,52.2,-5.1
2022/12/23 21:00:00,52.1,-5.2
2022/12/23 21:10:00,51.9,-5.1
2022/12/23 21:20:00,51.9,-5.0
2022/12/23 21:30:00,51.6,-5.1
2022/12/23 21:40:00,51.3,-5.3
2022/12/23 21:50:00,51.1,-5.1
2022/12/23 22:00:00,51.0,-4.9
2022/12/23 22:10:00,51.0,-4.9
2022/12/23 22:20:00,50.9,-4.8
2022/12/23 22:30:00,50.6,-5.0
2022/12/23 22:40:00,50.3,-4.9
2022/12/23 22:50:00,50.8,-4.9
2022/12/23 23:00:00,51.5,-4.6
2022/12/23 23:10:00,52.1,-4.9
2022/12/23 23:20:00,52.7,-4.8
2022/12/23 23:30:00,53.4,-4.7
2022/12/23 23:40:00,53.3,-4.7
